Rbgn^[z[y[W
メイン
   新天体発見情報
     Comet C/2018 W1 (Catalina)
投稿するにはまず登録を

スレッド表示 | 新しいものから 前のトピック | 次のトピック | 下へ
投稿者 スレッド
佐藤裕久
投稿日時: 2018-12-22 4:11
モデレータ
登録日: 2005-6-12
居住地: 日本
投稿: 2505
オンライン
Comet C/2018 W1 (Catalina)

M. Micheliの書き込みによると、仮符号A/2018 W1 (CBET 4580参照)を12月8.25日UT、K. J. Meechと
J.Kleynaが、Mauna Keaにある3.6-m Canada-France-Hawaii Telescopeで得た3枚の60秒r-フィルター露出
で南東にわずかに伸びる19.7等のかすかなコマが見える。
この天体は、11月16.2日UT(CBET 4580上で不注意に述べられた11月2.5日ではない)、Catalinaで得た画像
からG. J. Leonardが小惑星状と通報されたものである。

発見位置は次のとおり、

     2018 UT             R.A. (2000) Decl.       Mag.   Observer
     Nov. 16.19962    2 23 13.05   +46 29 14.5   19.8   Leonard
          16.20495    2 23 12.23   +46 29 05.3   19.9     "
          16.21029    2 23 11.55   +46 28 56.2   18.9     "
          16.21561    2 23 10.63   +46 28 47.7   19.4     "

改訂軌道要素と位置推算表は次のとおり、

Orbital elements:
    C/2018 W1 (Catalina)
Epoch 2019 Apr. 27.0 TT = JDT 2458600.5
T 2019 May 11.85003 TT                                  MPCW
q   1.3601551            (2000.0)            P               Q
n   0.00967629     Peri.  251.24827     +0.10160382     -0.59234287
a  21.8103934      Node   233.58967     +0.67180384     -0.55169791
e   0.9376373      Incl.   83.27753     -0.73372765     -0.58716210
P 102
From 151 observations 2018 Nov. 16-Dec. 12, mean residual 0".3.

    C/2018 W1 (Catalina)
Epoch 2120 July 6.0 TT = JDT 2495560.5
T 2120 June 28.99302 TT                                 MPCW
q   1.3640578            (2000.0)            P               Q
n   0.00948694     Peri.  250.95474     +0.10275368     -0.59226762
a  22.0996380      Node   233.60294     +0.67575972     -0.54798937
e   0.9382769      Incl.   83.14046     -0.72992498     -0.59070019
P 104
From 151 observations 2018 Nov. 16-Dec. 12, mean residual 0".3.

Ephemeris:
    C/2018 W1 (Catalina)
Date    TT    R. A. (2000) Decl.     Delta      r     Elong.  Phase   m1    m2
2018 11 15    02 25 50.7 +47 02 05   1.7931  2.6913   149.3    10.8        19.8
...
2018 11 30    01 56 22.6 +39 04 38   1.6757  2.5423   144.2    13.1        19.6
...
2018 12 08    01 44 39.2 +34 08 03   1.6531  2.4629   136.5    16.0        19.6
...
2018 12 14    01 37 57.3 +30 19 40   1.6534  2.4036   129.6    18.4        19.6
2018 12 15    01 37 00.7 +29 41 42   1.6548  2.3937   128.4    18.8        19.7
2018 12 16    01 36 07.0 +29 03 51   1.6565  2.3838   127.2    19.2        19.7
...
2018 12 22    01 31 44.6 +25 20 28   1.6741  2.3247   119.7    21.6        19.7
...
2018 12 30    01 28 23.1 +20 38 42   1.7139  2.2463   109.8    24.3        19.8
...
2019 01 14    01 28 37.7 +13 00 12   1.8220  2.1012    92.0    27.9        19.9

(CBET 4582、MPEC 2018-X136)

スレッド表示 | 新しいものから 前のトピック | 次のトピック | トップ

投稿するにはまず登録を
 
© 1999 Tsutomu Seki.